Weather in Nazimovo

Russia / Pskov Oblast     57°36′24″N   28°36′58″E
temp.,
°C
wind,
m/s
gust,
m/s
humid.,
%
clouds,
%
prec.,
mm/h
press.,
hPa
HPBL,
m
16 may, sun
sun1600:00+11wnw239617 0.3 100549
03:00+10w259850 0.3 1006118
06:00+11wsw259784 0.0 1007190
09:00+13w3590100 0.0 1009548
12:00+18w23579 0.0 10091300
15:00+21w22446 0.0 10101743
18:00+20sse234875 0.0 10091613
21:00+16ese246420 0.0 101082
17 may, mon
mon1700:00+12se24865 0.0 101071
03:00+11ese37938 0.0 1010130
06:00+13se4128687 0.0 1010316
09:00+17se4971100 0.0 1010559
12:00+20se5864100 0.8 10091321
15:00+19sse5973100 1.5 1009927
18:00+18sw2379100 0.4 1008225
21:00+14nnw4896100 1.9 1006338
18 may, tue
tue1800:00+13n41098100 3.2 1004372
03:00+14ene259991 5.6 1002213
06:00+15ese2799100 1.0 1000288
09:00+16sse3896100 2.9 1001807
12:00+16s3896100 0.6 1002593
15:00+17s2590100 0.8 1003557
18:00+18s3690100 2.1 1003516
21:00+15nnw379792 3.0 1003261
19 may, wed
wed1900:00+12nnw3698100 0.0 1004203
03:00+12nnw3798100 0.3 1004271
06:00+11nnw3698100 1.3 1004257
09:00+12nnw3497100 1.3 1005284
12:00+12nw3598100 1.8 1006261
15:00+12nnw3596100 1.9 1006310
18:00+13nw359597 0.0 1005320
21:00+12nw3696100 0.0 1005220
20 may, thu
thu2000:00+11nnw3798100 0.1 1005284
03:00+11nnw2796100 0.2 1004270
06:00+10nnw3597100 0.1 1003216
09:00+10nnw3598100 1.6 1003235
12:00+10nnw2398100 0.1 1003231
15:00+11w3496100 0.2 1003413
18:00+11wnw3796100 0.1 1002661
21:00+10wnw41096100 0.3 1003740